STARLINK-3983, 52618

Orbit data source: Space-Track

STARLINK-3983, 52618 is a payload satellite owned by SpaceX/Seattle (US) in LEO that was launched on Sat, 14 May 2022 UTC via an FALCON 9 launch vehicle from the Air Force Eastern Test Range (AFETR). Payload-class satellites include a variety of spacecraft equipped with specific instruments for various scientific and technological missions. These include communications satellites like Starlink; space stations such as the ISS; scientific satellites like the Hubble; Earth observation satellites from companies like Planet Labs, Umbra, and HawkEye 360; GPS; miniature CubeSats for education and research; and military/defense satellites.

Loading next visibility...
Identifier
52618, 2022-052W
Orbit
LEO
Country
Flag of USUS
Related business
Manufacturer
SpaceX/Seattle
Mission
Operational Commercial Communications
Bus & Motor
STARLINK, Unknown motor
Mass
297 kg wet, ~275 kg dry
Launch date (UTC)
2022-05-14 (4 years ago)
Launch vehicle
FALCON 9
Launch site
Air Force Eastern Test Range (AFETR)
Object type
Payload
Rocket body
Debris
Shape & HBR
Box + 1 Pan, 10.1 m
Radar Cross Section
13.562 m², Large (>1 m²)

Expand to show TLE details & history
Last TLE update: 2 days ago

TLE from 2 days ago
0 STARLINK-3983
1 52618U 22052W   26171.28837464  .00002869  00000-0  19835-3 0  9996
2 52618  53.1590 168.4244 0001070  63.2390 296.8711 15.08826766226471
Epoch: 2026-06-20T06:55Z
TLE epoch observation values (Epoch: 2026-06-20T06:55:15.568Z)
Latitude
-0.00003°
Longitude
156.10437°
Altitude
540.341 km
Speed
7.594 km/s
True Right ascension
11h 13m 41s
True Declination
0° 00' 00"
Sunlit
Object was in daylight at epoch
Visualization orbit readout
Latitude
Unknown
Longitude
Unknown
Altitude
Unknown
Speed
Unknown
Apparent Right ascension
Unknown
Apparent Declination
Unknown
Sunlit
N/A
Visualization observer readout
Local Sidereal Time
21:29:50
Azimuth
Unknown
Elevation
Unknown
Doppler factor
Unknown
Orbital elements
Apogee altitude
540.778 km
Perigee altitude
539.298 km
Semi-major axis
6,918.175 km
Eccentricity
0.00011
Inclination
53.159°
RAAN
168.4244°
Arg. of periapsis
63.239°
True anomaly
296.86016°
Mean anomaly
296.8711°
Eccentric anomaly
296.86563°
Mean motion
3.77186 °/min
Orbital period
95.44 mins
BSTAR
0.00019835
Loading maneuver chart data...
Computing Atmospheric mass density...
Loading historical data...
Loading historical data...
Loading historical data...
Loading historical data...
Loading historical data...
Loading historical data...
Loading historical data...

Documentation

Showing up to 5 results
|